GFSGL_sfc_temp_057.txt.gz
Temp
44 44 42 42 42 42 41 40 38 37 37 36 36 35 35 35 35 35 34 34 34 33 33 33 33 33 32 32 32 31 30 31 29 32 32 33 31 32 32 32 32 33 34
43 43 42 42 41 40 40 38 37 37 37 35 35 35 34 34 34 34 33 33 33 32 32 31 31 31 31 30 30 30 30 30 29 26 29 29 29 31 31 30 31 32 33
40 41 41 40 39 39 38 37 37 36 35 34 35 34 34 34 33 34 34 33 33 33 32 31 31 30 28 29 29 29 29 29 28 26 26 28 29 29 29 31 30 31 32
39 39 38 39 39 39 38 36 36 35 34 34 35 35 35 34 34 34 34 33 32 32 32 32 31 30 29 29 28 28 27 26 26 25 25 26 26 28 28 26 27 30 29
37 37 37 37 39 38 36 35 35 35 35 35 34 34 34 33 34 33 34 32 31 30 30 31 31 31 31 30 29 27 26 25 25 24 24 25 25 25 25 27 24 27 28
37 37 37 36 36 35 34 34 33 33 33 33 32 32 32 34 37 37 34 31 31 30 29 30 31 29 31 33 33 32 29 24 21 23 25 23 25 25 26 25 24 22 21
36 35 34 34 34 34 33 32 32 32 32 32 32 31 31 32 38 37 36 31 30 30 30 30 29 29 28 29 33 35 34 35 32 27 25 26 25 26 26 25 24 22 21
35 34 33 33 33 32 32 32 32 32 31 31 30 31 31 31 38 38 35 30 30 30 30 29 29 29 28 27 26 25 26 27 28 29 29 28 28 28 28 27 24 20 20
34 33 33 33 32 31 30 31 32 31 31 30 30 29 30 30 37 36 34 29 28 29 29 29 29 28 30 33 26 23 24 25 28 31 32 33 33 34 31 24 19 16 17
34 33 33 33 31 30 31 30 31 31 30 29 27 28 28 27 37 35 34 31 28 28 27 28 28 29 31 33 29 26 22 24 24 24 24 27 29 27 29 26 21 15 14
31 31 31 32 30 31 31 30 29 28 27 26 26 26 27 28 30 35 35 30 30 29 28 27 28 32 33 33 33 28 25 28 25 26 24 23 22 21 21 21 21 18 15
29 28 28 28 30 30 29 28 29 28 26 26 26 25 26 27 29 34 35 34 34 30 28 28 27 30 32 33 33 33 33 32 30 24 20 19 19 19 20 20 19 19 20
27 26 27 29 30 30 29 28 28 28 27 26 26 26 26 25 27 32 33 35 35 32 30 28 29 31 32 32 33 33 30 27 24 20 18 18 20 21 19 17 17 17 16
28 29 29 29 29 30 30 30 29 28 27 27 27 28 28 24 24 25 28 30 31 34 32 29 30 29 28 27 23 23 22 21 20 19 19 20 18 16 15 16 13 12 9
30 29 29 30 30 29 29 30 30 31 32 30 30 30 27 23 24 26 26 24 24 24 15 15 17 17 18 18 17 17 18 17 16 16 16 15 14 15 13 13 11 8 5
26 26 27 28 27 25 25 22 29 29 33 34 32 28 23 28 31 31 30 29 29 28 14 13 13 14 15 13 12 13 13 12 13 13 12 12 11 10 10 10 8 5 3
25 23 22 22 23 22 22 22 21 26 31 31 31 31 29 28 31 31 31 30 28 29 13 11 11 10 10 10 9 8 8 9 8 9 8 8 8 7 6 5 4 4 3
20 20 21 20 20 20 20 20 21 23 22 24 28 27 28 30 30 31 31 22 12 9 5 6 6 5 5 5 5 4 4 4 4 5 4 3 3 3 1 0 1 -0 -0
19 17 15 15 15 15 16 16 16 17 16 14 14 20 19 30 30 24 19 8 6 4 -0 -0 -0 -1 -0 -1 -1 -2 -2 -0 -0 -1 -1 -2 -2 -2 -3 -3 -1 -2 -1
12 12 12 12 11 11 11 12 11 11 11 10 9 8 6 12 6 1 -3 -2 0 -0 -2 -1 -5 -6 -5 -5 -5 -5 -4 -5 -3 -5 -4 -4 -3 -3 -2 -5 -3 -2 -2
6 6 6 7 6 4 5 7 7 7 7 5 4 2 7 4 2 -0 -3 -2 -1 -3 -4 -5 -7 -8 -9 -8 -9 -7 -8 -4 -7 -8 -7 -6 -6 -5 -5 -3 -3 -4 -4
3 -0 -1 -2 1 1 -1 1 1 1 1 1 -0 2 17 0 -1 -1 -2 -4 -6 -7 -8 -7 -7 -8 -8 -9 -8 -8 -8 -8 -7 -9 -8 -9 -8 -6 -6 -5 -6 -5 -7
1 -0 -3 -5 -3 -3 -4 -5 -3 -2 -3 -3 -2 -1 -2 -3 -3 -3 -4 -7 -8 -7 -9 -10 -8 -8 -10 -13 -11 -7 -7 -7 -6 -8 -8 -8 -8 -7 -7 -7 -8 -11 -12
-3 -3 -3 -6 -6 -6 -6 -8 -6 -6 -5 -7 -5 -3 -1 -3 -5 -4 -5 -5 -7 -7 -9 -8 -10 -10 -8 -12 -13 -13 -12 -9 -11 -10 -10 -8 -9 -10 -9 -11 -11 -13 -13
-7 -7 -7 -9 -10 -9 -8 -9 -7 -10 -10 -7 -8 -7 -6 -6 -6 -6 -6 -6 -7 -7 -6 -8 -10 -10 -9 -11 -11 -13 -15 -7 -8 -13 -14 -12 -12 -13 -14 -14 -13 -14 -15
-9 -9 -13 -13 -13 -15 -15 -12 -14 -12 -13 -11 -10 -10 -7 -6 -5 -5 -6 -8 -8 -8 -8 -7 -9 -10 -11 -10 -10 -9 -10 -5 -8 -10 -11 -12 -12 -13 -15 -17 -18 -17 -15

GFSGL_sfc_temp_060.txt.gz
Temp
52 54 53 52 51 50 50 51 48 46 41 40 40 40 40 40 45 45 44 43 42 41 42 41 40 39 37 36 37 38 39 41 38 39 39 41 39 39 39 40 39 38 39
52 53 51 52 51 49 48 50 47 44 41 39 39 38 39 39 43 44 41 41 40 39 40 39 37 35 34 35 36 37 38 38 38 35 37 37 36 38 38 36 36 37 37
51 51 50 50 48 48 47 48 45 43 40 38 38 37 37 38 42 42 41 41 41 41 39 38 35 33 31 34 35 37 37 34 36 34 34 35 35 36 35 36 37 37 37
49 49 48 48 47 46 45 44 42 41 39 37 37 38 38 37 41 41 40 39 39 38 38 37 33 33 33 34 35 35 34 33 32 31 31 32 34 34 33 31 33 37 35
47 47 48 47 47 45 42 40 39 38 38 37 37 37 37 37 39 39 38 37 37 36 35 34 34 33 34 36 35 34 32 30 31 30 30 31 31 32 31 33 30 32 34
46 45 47 46 43 40 39 38 36 36 36 35 35 35 35 36 39 39 38 36 35 35 33 32 32 30 33 35 35 35 34 30 29 30 31 29 30 31 32 30 29 28 26
42 41 40 40 38 38 37 36 34 35 35 34 34 34 34 35 38 38 37 35 35 35 32 32 32 32 32 34 35 35 34 34 34 32 28 30 30 32 32 29 29 29 27
38 37 37 37 36 37 36 35 34 34 33 33 33 33 34 34 39 38 36 34 33 32 32 32 33 33 32 30 31 30 31 32 33 34 34 34 34 33 31 30 29 27 27
38 37 37 36 35 35 34 34 34 33 32 32 32 31 32 32 38 38 35 33 32 31 32 33 33 30 32 34 30 27 29 29 32 33 34 34 34 35 34 29 26 24 23
38 38 38 36 34 33 34 34 34 33 32 31 30 31 31 30 35 36 33 31 30 29 30 31 29 29 32 34 32 29 26 28 30 28 28 30 32 32 32 30 28 24 22
36 35 34 35 33 34 34 34 33 31 30 28 28 27 28 30 33 35 35 32 33 31 31 30 29 31 32 32 35 31 30 32 30 29 29 28 28 28 28 28 27 24 21
33 33 33 33 33 33 32 32 32 29 28 27 26 26 28 28 32 35 36 35 35 32 31 31 30 31 32 34 34 34 35 34 32 30 28 26 25 25 26 26 25 24 23
30 29 30 32 32 32 31 30 30 30 29 27 27 27 27 28 29 34 36 37 36 32 32 31 32 31 33 34 35 34 32 31 29 26 26 26 26 25 23 22 22 21 20
29 29 30 30 31 31 32 32 31 31 29 28 28 28 28 27 28 30 32 34 34 33 33 32 32 32 32 32 29 28 27 27 25 25 24 24 24 22 20 21 17 17 14
30 29 30 31 31 31 31 31 31 32 33 30 31 31 30 29 29 31 32 31 32 32 27 28 28 27 25 25 24 24 24 23 22 22 21 20 19 18 17 18 16 13 10
29 30 31 31 31 30 29 27 33 33 34 34 33 33 32 35 34 33 33 32 32 31 24 24 24 25 24 24 22 21 21 17 19 19 18 16 15 14 14 14 14 11 8
30 29 29 28 28 27 27 27 26 30 33 34 33 33 32 31 32 33 33 33 32 31 23 23 25 23 23 21 20 18 17 17 14 14 14 13 13 12 10 10 10 9 8
28 27 29 29 29 29 29 29 29 29 27 27 30 30 30 30 32 32 33 31 26 26 23 21 21 20 19 17 15 14 14 13 12 12 11 10 9 9 8 7 7 5 5
27 27 27 27 27 26 26 26 28 28 27 24 26 24 27 31 31 32 29 23 21 19 16 16 16 15 13 12 12 10 10 10 9 8 8 6 7 6 5 5 5 2 2
20 19 23 23 22 23 23 23 23 23 23 22 23 23 21 22 21 17 14 15 16 16 13 14 10 9 9 8 8 7 6 4 5 5 5 6 6 5 4 3 3 3 3
18 17 16 20 20 20 20 21 21 20 20 20 20 15 14 22 17 16 13 12 13 12 10 10 7 6 5 5 5 5 4 6 5 4 4 4 3 2 3 4 3 2 1
15 15 15 15 15 16 15 17 17 18 17 16 13 14 19 15 13 12 11 9 8 8 8 7 6 5 4 3 3 4 3 3 4 2 2 1 1 2 1 1 1 1 0
13 13 12 11 11 8 12 12 14 14 13 13 13 12 12 11 10 9 8 6 4 3 2 2 3 2 2 1 2 4 3 3 3 3 1 1 0 1 0 0 -0 -2 -2
11 11 10 10 10 10 10 10 8 6 10 9 9 10 10 8 7 7 5 5 3 3 2 1 0 1 2 1 0 -0 -0 1 2 0 -1 -0 -0 -1 -2 -1 -2 -3 -5
8 8 8 8 8 8 8 7 7 7 7 7 6 6 6 6 5 4 4 3 1 2 1 -0 -0 -0 -1 -2 -1 -1 -1 -0 -0 -3 -3 -3 -3 -3 -4 -4 -4 -4 -6
4 4 4 5 4 4 5 5 5 4 4 5 4 4 4 4 4 4 3 1 0 -0 0 0 0 -1 -1 -1 -1 -1 -2 -1 -4 -5 -3 -3 -4 -4 -4 -6 -8 -7 -7

GFSGL_sfc_temp_063.txt.gz
Temp
59 58 58 58 58 58 57 56 53 51 47 44 43 41 41 42 42 43 42 41 42 41 42 41 39 39 37 36 36 37 37 37 35 35 38 38 36 36 37 37 38 36 37
58 57 56 57 55 55 54 53 51 48 45 44 43 42 42 40 40 41 40 41 40 39 39 38 37 37 35 35 35 36 36 35 35 34 36 35 35 37 36 34 35 37 36
56 55 55 54 54 53 52 51 49 45 43 43 41 41 40 39 39 40 40 40 39 39 38 37 35 35 33 33 35 35 34 33 34 33 33 34 34 34 33 34 34 34 37
54 53 52 52 52 52 52 50 46 44 42 41 40 40 39 38 38 39 38 38 38 38 37 37 35 35 33 33 33 33 33 32 32 31 31 32 32 34 32 30 30 33 33
53 51 51 51 52 51 48 47 44 43 42 40 39 39 38 37 38 37 37 37 36 35 36 35 35 34 35 35 33 32 32 31 31 29 30 30 31 30 30 31 29 30 31
52 49 51 48 46 44 43 41 39 39 38 37 36 36 36 37 40 40 38 36 35 34 33 34 33 32 35 36 34 35 35 30 29 30 30 29 30 30 31 30 29 27 24
46 43 41 42 41 41 40 38 37 36 36 35 35 35 35 36 40 40 39 36 35 35 34 33 31 32 32 30 32 36 35 37 36 32 29 30 30 31 30 29 28 27 26
42 39 39 39 38 38 37 36 36 36 34 34 34 35 35 35 39 39 37 35 34 34 34 33 33 29 29 29 32 30 32 32 33 33 32 31 32 32 30 29 27 26 28
40 39 38 38 36 36 35 35 35 34 33 33 33 33 33 33 38 38 36 33 33 32 33 33 32 30 31 31 30 28 28 29 34 36 36 36 36 36 35 31 27 25 23
38 38 38 36 35 35 35 34 34 34 33 32 31 32 32 31 38 38 35 34 29 30 30 31 31 32 33 33 29 27 25 28 29 27 28 30 32 31 33 30 27 23 23
36 36 35 35 34 35 34 34 33 32 30 29 29 30 30 33 34 35 33 30 30 29 29 28 29 33 33 33 33 29 29 31 31 28 26 26 27 27 26 28 27 23 19
33 33 32 32 33 33 32 32 32 30 29 27 26 26 28 30 33 35 34 33 33 31 31 31 30 33 33 34 33 34 34 33 30 28 28 28 25 25 25 24 24 23 23
30 29 31 31 32 32 31 30 30 30 28 27 26 26 26 28 31 34 35 34 35 33 33 33 34 33 34 34 35 34 32 32 29 28 27 25 25 24 23 21 21 20 20
29 29 30 30 31 31 32 32 30 30 29 27 27 27 27 27 28 31 33 34 34 34 33 32 32 32 32 31 29 32 29 28 27 25 24 24 22 20 18 18 14 14 10
30 29 31 31 31 31 31 32 32 32 32 29 29 29 27 26 28 31 33 32 33 34 32 31 30 29 27 27 26 25 24 22 21 22 19 18 19 17 16 15 13 9 6
28 28 30 31 31 31 30 30 33 33 33 33 34 33 32 33 33 33 34 35 36 35 28 27 27 27 25 25 23 22 22 19 20 18 16 16 14 13 12 11 10 6 4
31 30 31 30 30 29 29 29 28 31 34 34 34 34 34 33 34 34 34 34 34 34 26 27 26 26 25 25 23 21 19 17 13 14 14 13 12 9 8 7 7 7 3
31 31 32 31 30 30 30 30 30 28 27 26 31 31 32 31 33 34 34 34 30 30 26 25 24 24 23 20 18 15 14 11 12 12 11 9 8 7 7 5 4 -0 -1
29 29 30 30 29 29 29 28 29 29 28 25 24 26 28 32 33 33 33 27 25 22 21 21 21 20 17 16 14 13 13 12 10 8 7 6 6 4 1 1 2 1 -1
22 23 26 26 26 26 26 26 26 26 25 24 25 24 21 23 22 18 19 21 20 20 17 16 14 12 12 10 10 10 8 5 4 3 5 6 5 3 0 -3 -3 -3 -3
21 20 22 23 23 23 24 23 22 22 22 23 20 19 20 24 21 17 14 14 15 13 11 11 8 7 7 8 7 6 6 6 6 5 5 4 2 0 -2 -0 -3 -4 -6
18 18 18 18 19 18 18 19 20 19 19 18 14 18 19 17 15 13 12 10 8 8 8 7 6 6 5 5 5 5 4 4 4 3 2 1 0 -2 -5 -3 -4 -4 -5
17 16 15 14 14 15 15 15 15 16 15 15 14 13 14 12 11 10 9 7 5 3 2 2 3 -1 0 -1 1 2 3 3 3 3 1 -0 -3 -5 -6 -6 -5 -8 -9
13 13 12 10 11 12 12 11 10 7 10 11 11 11 10 8 7 6 4 4 3 1 -0 -3 -3 -3 -3 -3 -3 -2 1 0 0 -0 -3 -3 -3 -5 -8 -9 -9 -10 -10
9 8 7 7 8 9 9 8 8 7 7 8 7 6 6 5 4 3 2 0 -2 -1 -2 -4 -3 -4 -4 -6 -4 -4 -2 2 -2 -1 -5 -6 -6 -8 -11 -11 -12 -12 -12
7 7 7 7 6 6 5 5 5 5 4 4 4 3 3 2 2 1 -0 -2 -3 -4 -4 -3 -3 -4 -5 -4 -5 -3 -2 2 -2 -1 -4 -4 -5 -5 -7 -10 -13 -14 -14

GFSGL_sfc_temp_069.txt.gz
Temp
48 49 48 48 48 48 49 48 48 45 45 42 42 43 44 45 46 46 46 45 44 43 43 41 41 39 38 37 37 36 36 35 32 31 33 34 34 34 34 33 34 33 33
48 47 47 47 47 47 49 48 46 45 43 42 41 41 42 43 43 44 42 42 42 40 39 39 38 38 36 36 36 36 36 34 33 30 31 31 32 32 33 32 33 34 33
47 46 46 46 46 47 47 45 44 43 41 39 39 39 39 40 41 43 43 41 41 40 39 38 37 36 34 33 34 34 34 34 33 31 29 30 30 30 30 31 31 31 33
46 45 45 46 47 47 46 44 43 40 39 38 37 37 36 38 40 40 40 39 39 39 38 38 36 36 34 33 34 33 32 31 31 32 29 30 29 30 30 29 28 30 30
45 44 46 46 44 43 41 40 39 37 37 36 34 34 33 35 39 38 38 38 37 36 35 36 35 35 36 35 34 32 32 30 30 29 28 28 28 28 28 29 28 29 28
44 44 46 42 39 39 39 38 37 36 34 33 33 33 33 37 40 41 39 37 36 35 33 33 33 32 35 37 38 38 36 31 28 27 27 27 29 30 29 29 28 25 23
40 38 38 37 36 37 37 36 35 34 33 33 32 32 32 35 40 41 40 37 36 36 34 33 32 33 33 34 38 38 37 39 36 31 29 28 28 30 30 28 28 26 24
36 35 34 35 35 34 33 34 33 32 32 32 31 30 31 34 39 40 39 36 35 34 34 33 32 31 32 32 32 31 31 31 32 31 30 30 31 31 30 30 28 25 24
35 35 34 32 33 31 31 31 28 27 27 27 27 28 29 32 38 39 38 33 33 32 33 32 32 31 34 35 31 29 29 29 32 34 35 35 36 35 33 26 20 18 19
34 34 34 33 32 32 31 27 25 24 27 28 27 27 29 32 37 39 38 33 30 30 30 30 32 32 35 35 32 30 28 28 28 28 30 33 33 32 35 29 25 18 16
32 31 31 30 28 27 25 25 25 24 26 28 29 30 30 31 33 38 39 32 31 29 28 29 30 34 35 36 34 30 30 29 29 27 27 27 27 26 26 26 26 22 15
27 27 28 24 26 26 23 23 28 28 27 26 27 26 27 29 33 37 38 35 34 28 27 29 31 35 36 36 33 33 34 31 28 27 25 24 24 24 25 23 23 22 22
25 26 24 20 22 21 22 28 28 28 27 25 26 25 26 28 30 36 36 34 33 30 29 30 32 36 36 35 35 35 32 30 27 25 25 25 25 26 23 21 20 19 18
23 24 21 21 20 19 25 26 27 27 26 25 25 25 25 26 27 31 32 32 32 30 31 31 31 33 34 33 32 33 32 31 28 27 26 25 22 21 19 18 14 13 7
24 22 19 19 19 20 22 22 22 22 27 26 26 25 24 24 26 30 32 31 31 31 30 30 30 30 30 30 29 29 28 28 28 26 24 20 19 18 16 16 13 5 2
23 25 24 26 26 25 24 26 33 32 33 33 32 28 27 30 32 33 34 34 34 34 30 29 29 30 29 28 26 25 24 24 24 23 22 20 18 16 14 11 6 4 2
21 27 27 26 25 25 25 26 26 30 33 33 33 33 31 32 33 34 34 35 35 34 30 29 28 29 28 26 25 24 22 22 21 20 18 17 14 14 10 7 8 6 -3
29 28 27 26 26 26 25 26 26 24 23 23 29 31 33 34 34 34 35 34 31 33 29 29 28 27 25 25 23 20 17 17 15 14 13 12 11 9 6 8 7 -4 -7
25 25 26 26 25 25 25 25 25 23 21 21 21 26 25 33 33 34 35 29 27 25 22 20 20 18 19 19 18 16 12 12 9 7 2 4 7 8 4 5 5 2 -4
22 24 24 24 24 24 24 24 23 22 22 20 19 19 20 21 18 17 21 23 21 19 19 19 18 14 8 6 6 8 8 6 3 2 5 8 7 6 2 -0 -0 -5 -6
20 19 20 19 19 20 21 20 20 20 18 16 16 21 25 14 12 11 12 11 12 11 8 8 7 6 2 0 -1 -2 -1 5 5 6 5 5 -0 -6 -4 2 -1 -2 -6
16 16 15 15 15 15 15 16 15 14 13 13 13 15 19 12 10 8 7 3 0 -1 -5 -3 -5 -6 -5 -1 1 3 2 3 2 -0 -3 -4 -6 -7 -6 -5 -4 -5 -8
14 13 13 12 12 12 11 10 10 10 9 9 8 8 7 6 5 2 -2 -5 -5 -5 -8 -9 -8 -7 -6 -4 -3 -1 -0 -2 -2 -5 -6 -8 -8 -7 -7 -6 -7 -11 -10
11 10 9 9 9 8 8 6 6 6 5 3 2 2 3 1 -2 -5 -7 -9 -9 -11 -12 -13 -13 -11 -13 -15 -17 -19 -17 -15 -15 -8 -6 -6 -6 -4 -6 -10 -7 -7 -9
8 7 6 6 6 6 5 4 3 2 1 2 0 -1 -4 -3 -7 -10 -12 -14 -14 -13 -12 -15 -15 -15 -16 -16 -16 -17 -16 -1 -14 -8 -6 -4 -5 -6 -6 -6 -7 -10 -10
5 4 4 3 2 2 1 1 -0 1 -0 -1 -1 -5 -8 -9 -11 -13 -14 -15 -13 -14 -15 -16 -16 -15 -14 -12 -11 -8 -6 2 -2 -3 -9 -6 -6 -6 -7 -8 -8 -11 -9

GFSGL_sfc_temp_072.txt.gz
Temp
48 47 47 46 47 47 48 49 49 47 45 45 44 46 47 47 48 48 49 48 46 46 45 44 43 44 40 40 39 38 36 35 32 31 33 33 34 34 35 34 35 34 35
48 47 47 47 46 46 48 49 46 47 43 45 43 43 44 45 46 46 46 47 44 44 43 43 42 42 40 39 38 37 37 33 32 29 28 29 29 34 34 33 33 35 33
46 46 45 45 45 45 46 45 44 44 42 40 40 41 40 42 43 44 45 45 43 44 44 41 42 39 38 37 37 35 35 33 32 31 29 30 30 33 30 31 32 32 34
45 44 44 44 45 45 44 43 42 42 41 39 39 40 40 39 40 42 42 42 41 42 42 40 41 37 38 35 34 33 32 32 30 30 29 31 30 30 32 30 28 29 31
44 43 45 45 43 43 41 40 39 39 40 39 38 38 37 37 38 37 38 40 39 39 38 37 38 37 37 36 34 32 33 32 29 29 28 28 28 27 30 28 30 29 29
41 40 42 40 39 38 38 37 37 37 36 35 34 35 34 37 40 40 39 37 37 37 35 34 34 33 35 37 37 37 36 31 30 30 27 30 30 29 28 27 27 25 25
36 36 36 35 35 36 36 36 35 35 35 33 33 32 33 33 40 40 40 37 36 36 36 34 32 33 33 34 37 36 34 37 37 34 29 29 30 29 29 28 27 27 26
34 33 33 34 34 33 33 33 33 33 32 32 32 31 32 32 38 40 39 37 35 35 35 33 33 31 32 32 32 31 31 34 35 33 34 30 31 32 32 30 28 28 26
34 33 32 32 32 32 32 31 30 28 26 27 28 29 29 29 38 39 39 34 33 33 33 33 33 31 33 34 31 29 30 30 34 35 33 34 36 36 32 28 24 22 20
34 33 32 31 29 30 31 31 29 24 28 26 27 30 30 31 36 38 38 34 31 31 31 31 32 32 34 35 30 29 28 28 30 30 31 32 34 33 33 29 26 22 21
31 30 29 29 27 27 25 24 23 22 25 28 29 29 30 31 32 38 39 33 32 29 29 29 31 34 34 35 33 30 31 31 31 29 29 29 30 29 29 29 28 26 21
27 27 28 26 28 29 20 20 22 28 28 27 28 27 27 28 32 36 38 37 34 29 28 29 30 34 34 35 33 34 36 31 29 27 26 26 26 26 26 26 25 24 24
23 25 25 24 26 24 24 27 28 28 27 26 26 26 26 27 29 35 37 36 34 29 29 30 32 34 35 35 35 35 32 29 28 25 25 25 26 26 25 23 21 20 19
20 21 22 22 22 21 27 27 28 27 26 26 25 25 25 26 27 29 32 31 32 30 31 31 32 33 34 33 32 33 32 29 27 27 26 26 25 23 22 20 17 14 11
20 20 21 19 17 21 21 21 21 22 26 23 25 26 25 25 27 31 32 30 30 29 28 28 29 30 31 30 30 30 30 30 28 27 25 22 22 21 19 18 15 12 10
24 26 28 20 20 25 26 26 32 32 33 33 32 26 22 29 31 33 34 33 33 33 27 26 27 27 27 27 26 25 26 27 27 26 24 22 21 19 17 15 12 10 9
24 23 26 25 25 25 24 24 22 29 33 33 33 32 31 30 32 33 34 34 34 33 26 27 28 28 27 26 26 26 24 24 22 23 22 21 20 18 15 13 11 9 7
20 27 24 24 26 25 25 25 25 24 23 23 28 30 33 33 33 34 35 35 31 32 25 26 26 27 26 26 25 23 21 20 19 18 18 17 15 14 11 11 10 8 8
22 21 24 24 25 25 25 25 24 23 22 21 23 25 25 31 32 32 34 29 27 26 26 25 25 25 23 23 21 20 19 16 14 13 10 10 10 10 7 11 10 7 3
20 24 24 24 24 23 23 23 22 21 19 19 20 20 20 21 19 19 20 22 20 20 20 19 17 16 14 10 7 7 5 4 3 6 5 7 7 10 8 6 5 2 0
17 19 20 19 19 20 20 20 19 18 17 16 17 23 23 15 13 12 11 10 12 12 12 11 9 7 5 2 -0 2 3 4 3 4 4 4 3 -2 2 5 -2 -4 -8
16 16 16 15 15 15 15 16 15 14 14 13 11 13 17 11 9 8 6 3 2 1 -0 -3 -5 -6 -5 -4 -3 -1 -1 -1 -1 1 1 -1 -2 -7 -7 -8 -7 -8 -12
14 14 13 12 12 12 11 11 11 11 10 9 9 8 7 6 5 4 2 1 1 -0 -3 -4 -4 -7 -9 -9 -8 -4 -3 -4 -3 -8 -8 -11 -12 -13 -13 -12 -12 -12 -11
11 11 10 9 9 9 8 8 7 7 6 5 4 4 3 2 1 1 -0 -1 -0 -3 -5 -6 -9 -12 -14 -17 -21 -21 -19 -17 -19 -15 -14 -15 -16 -13 -11 -11 -5 -3 -3
7 7 7 6 6 5 5 4 3 2 2 3 1 1 -1 -0 -1 -4 -6 -6 -8 -7 -7 -11 -14 -15 -15 -15 -17 -19 -18 -7 -17 -16 -18 -14 -12 -8 -8 -5 -5 -8 -6
5 4 4 4 3 2 1 0 -1 -1 -1 -1 -1 -2 -3 -2 -4 -4 -9 -9 -9 -11 -13 -15 -16 -15 -15 -15 -15 -11 -10 -1 -8 -8 -15 -10 -8 -10 -9 -10 -10 -10 -7

GFSGL_sfc_temp_075.txt.gz
Temp
47 46 46 46 46 46 47 47 47 46 45 45 45 45 46 46 48 49 50 50 49 49 48 46 46 46 46 41 40 40 39 40 39 30 34 34 34 35 35 35 35 34 36
46 46 46 46 45 45 45 46 45 45 44 44 42 43 46 47 47 47 47 48 47 46 46 45 44 45 43 41 39 38 38 39 40 29 29 29 30 33 32 31 32 35 35
44 44 44 44 44 44 44 44 44 43 42 41 41 41 43 44 45 46 46 46 46 47 46 45 44 44 42 42 40 39 37 36 37 31 27 29 29 30 29 30 31 32 34
43 42 42 42 43 43 43 43 42 42 41 40 39 41 41 41 42 44 44 44 44 44 44 44 44 43 42 41 37 36 35 33 33 32 29 28 28 28 29 28 28 30 31
41 41 42 41 40 40 39 38 38 37 39 39 38 37 38 38 40 40 41 41 41 41 41 41 41 41 39 41 37 35 33 33 32 32 28 27 26 26 26 31 29 28 28
38 37 38 36 35 36 35 35 35 36 36 35 35 35 35 38 41 41 40 38 38 38 38 37 37 35 36 39 39 39 36 34 33 32 29 27 26 27 30 28 27 26 24
34 34 34 34 34 35 34 34 34 34 34 34 34 33 34 35 40 40 40 36 36 36 37 36 34 33 33 35 38 38 38 39 39 34 29 28 28 29 29 27 29 28 27
35 34 32 32 32 33 33 33 32 31 31 32 32 31 32 32 38 40 39 36 35 35 35 35 34 32 32 33 33 33 33 34 34 32 31 31 31 30 31 32 30 28 27
34 33 33 31 31 30 30 31 31 30 29 29 29 27 27 29 37 38 38 34 34 33 34 34 34 32 33 35 32 31 31 31 34 34 34 34 35 34 32 29 27 25 23
33 32 31 30 28 29 29 29 27 23 28 27 28 26 26 31 35 37 37 34 33 32 31 31 32 32 34 36 32 31 28 29 30 31 31 33 34 33 34 32 28 25 22
29 29 28 28 26 26 26 23 22 23 24 23 24 26 25 26 31 36 38 33 33 31 30 29 30 35 35 35 35 31 30 31 32 30 29 29 30 30 30 29 29 28 24
26 25 26 24 25 27 22 21 20 21 21 28 26 26 25 26 30 34 36 37 35 29 28 29 30 34 35 35 33 33 34 31 30 29 28 27 28 28 28 28 28 27 26
23 23 24 24 24 23 18 21 26 27 27 28 26 25 25 25 27 33 36 37 35 29 30 30 32 33 34 34 34 34 32 30 28 27 27 27 28 28 26 24 23 21 21
25 24 23 23 24 21 22 22 24 26 26 27 26 26 22 24 27 29 31 32 32 30 31 28 31 32 33 33 32 33 30 29 28 27 27 26 26 24 23 22 19 18 16
23 25 25 27 24 21 21 20 20 20 23 18 21 25 24 25 27 31 31 29 28 28 25 26 27 29 30 30 30 30 29 28 27 27 26 24 23 23 21 20 18 16 15
16 22 26 27 27 22 20 21 31 33 33 33 33 29 22 29 32 32 33 33 32 33 23 22 21 26 29 28 28 28 29 28 28 27 25 24 22 22 19 18 16 15 14
13 17 23 27 25 23 18 19 22 24 33 33 33 33 32 31 31 32 34 34 33 32 24 23 24 24 26 26 26 26 25 25 25 24 23 22 21 20 18 16 14 13 11
11 15 18 24 25 22 21 23 23 21 22 23 27 30 33 33 33 33 33 33 30 30 25 25 25 26 25 25 24 24 22 21 20 21 21 19 19 17 14 14 13 10 10
11 16 21 24 22 23 23 24 23 22 21 21 22 25 24 30 30 29 30 26 25 23 25 23 24 24 23 23 22 21 20 18 17 17 15 13 13 11 9 11 11 10 8
14 18 22 21 19 21 23 23 21 20 19 20 20 19 19 20 17 15 15 17 17 17 17 16 15 14 14 14 14 13 12 11 10 10 8 7 8 11 9 7 8 7 5
15 17 20 18 19 20 21 20 19 18 16 15 16 21 21 14 11 10 9 8 8 9 10 9 8 8 7 6 6 4 3 3 2 3 4 5 4 4 4 9 7 5 2
16 16 16 16 17 17 16 17 16 15 14 13 11 14 17 11 9 8 5 4 3 3 2 4 2 0 -0 0 1 2 1 -0 -1 -1 -1 -2 -2 0 1 0 0 -3 -7
13 13 13 13 13 13 12 12 12 11 10 10 10 9 8 7 6 4 2 1 -0 -1 -1 -2 -1 -2 -5 -5 -5 -4 -2 -4 -5 -7 -6 -9 -9 -9 -9 -9 -10 -11 -11
10 10 10 9 10 9 9 8 8 8 7 5 5 4 3 1 -0 -1 -2 -3 -3 -6 -6 -6 -8 -9 -10 -14 -18 -18 -18 -17 -19 -15 -13 -12 -15 -17 -18 -18 -14 -12 -7
7 7 6 6 6 6 5 4 4 4 3 2 1 1 -1 -1 -1 -2 -3 -3 -3 -2 -4 -6 -8 -10 -13 -13 -13 -15 -15 -8 -16 -17 -21 -19 -19 -20 -19 -16 -11 -8 -5
4 4 3 3 3 3 3 2 1 -0 -2 -2 -2 -3 -4 -4 -4 -5 -8 -8 -7 -7 -8 -9 -13 -14 -14 -14 -14 -10 -9 -1 -9 -12 -19 -18 -18 -19 -17 -14 -11 -12 -10